TimeEST,TemperatureF,Dew PointF,Humidity,Sea Level PressureIn,VisibilityMPH,Wind Direction,Wind SpeedMPH,Gust SpeedMPH,PrecipitationIn,Events,Conditions,WindDirDegrees,DateUTC
12:00 AM,33.8,32.0,93,29.54,4.0,WSW,12.7,20.7,N/A,Rain,Light Rain,240,2013-02-12 05:00:00
1:00 AM,33.8,32.0,93,29.54,5.0,SW,12.7,19.6,N/A,Rain,Light Rain,220,2013-02-12 06:00:00
2:00 AM,33.8,30.2,87,29.54,25.0,SW,9.2,20.7,N/A,,Overcast,230,2013-02-12 07:00:00
3:00 AM,33.8,30.2,87,29.54,12.0,SW,10.4,18.4,N/A,Rain,Light Rain,220,2013-02-12 08:00:00
3:18 AM,32.0,30.2,93,29.54,6.0,SW,9.2,-,N/A,Snow,Light Snow,220,2013-02-12 08:18:00
4:00 AM,32.0,32.0,100,29.54,6.0,SW,8.1,-,N/A,Snow,Light Snow,230,2013-02-12 09:00:00
5:00 AM,32.0,32.0,100,29.54,4.0,SW,8.1,-,N/A,Snow,Light Snow,230,2013-02-12 10:00:00
6:00 AM,32.0,32.0,100,29.54,4.0,WSW,12.7,18.4,N/A,Snow,Light Snow,240,2013-02-12 11:00:00
7:00 AM,33.8,32.0,93,29.55,5.0,WSW,9.2,17.3,N/A,Snow,Light Snow,240,2013-02-12 12:00:00
8:00 AM,33.8,32.0,93,29.57,5.0,WSW,9.2,17.3,N/A,Snow,Light Snow,240,2013-02-12 13:00:00
9:00 AM,33.8,32.0,93,29.59,5.0,WSW,9.2,20.7,N/A,Snow,Light Snow,250,2013-02-12 14:00:00
10:00 AM,33.8,32.0,93,29.61,10.0,WSW,15.0,21.9,N/A,Snow,Light Snow,250,2013-02-12 15:00:00
11:00 AM,33.8,32.0,93,29.63,5.0,West,11.5,23.0,N/A,Snow,Light Snow,260,2013-02-12 16:00:00
12:00 PM,35.6,30.2,81,29.65,8.0,West,10.4,18.4,N/A,Snow,Light Snow,260,2013-02-12 17:00:00
12:20 PM,35.6,28.4,75,29.66,12.0,West,12.7,21.9,N/A,,Mostly Cloudy,270,2013-02-12 17:20:00
1:00 PM,35.6,28.4,75,29.68,25.0,West,12.7,25.3,N/A,,Overcast,270,2013-02-12 18:00:00
2:00 PM,35.6,28.4,75,29.69,25.0,West,10.4,23.0,N/A,,Overcast,270,2013-02-12 19:00:00
3:00 PM,35.6,28.4,75,29.70,25.0,West,11.5,19.6,N/A,,Overcast,260,2013-02-12 20:00:00
4:00 PM,33.8,28.4,81,29.70,25.0,WSW,10.4,19.6,N/A,,Overcast,250,2013-02-12 21:00:00
5:00 PM,33.8,28.4,81,29.72,15.0,WSW,10.4,18.4,N/A,,Overcast,250,2013-02-12 22:00:00
6:00 PM,32.0,24.8,75,29.74,15.0,West,10.4,23.0,N/A,,Overcast,280,2013-02-12 23:00:00
7:00 PM,32.0,24.8,75,29.77,20.0,West,10.4,-,N/A,,Overcast,270,2013-02-13 00:00:00
8:00 PM,32.0,24.8,75,29.79,20.0,West,4.6,-,N/A,Snow,Light Snow Showers,260,2013-02-13 01:00:00
9:00 PM,30.2,24.8,80,29.81,25.0,West,8.1,-,N/A,Snow,Light Snow Showers,260,2013-02-13 02:00:00
10:00 PM,30.2,26.6,86,29.81,25.0,West,9.2,-,N/A,Snow,Light Snow Showers,260,2013-02-13 03:00:00
11:00 PM,30.2,24.8,80,29.81,25.0,West,8.1,-,N/A,,Overcast,260,2013-02-13 04:00:00